Погода в Драчевке

Россия / Курская область     51°20′46″N   36°12′34″E
темп.,
°C
ветер,
м/с
пор.,
м/с
влажн.,
%
обл.,
%
осадки,
мм/ч
давл.,
гПа
погр.,
м
19 сентября, вс
вс1900:00+10вюв81773100 0.0 1012504
03:00+10вюв71376100 0.9 1012375
06:00+9вюв81687100 4.4 1010417
09:00+10вюв81584100 7.8 1009460
12:00+11вюв71390100 2.4 1009583
15:00+12вюв51294100 3.7 1008627
18:00+13юв51093100 0.6 1007530
21:00+12в259997 1.1 1006182
20 сентября, пн
пн2000:00+12ююв119861 0.1 100610
03:00+11юв2297100 0.1 100623
06:00+12юв2496100 0.6 1005101
09:00+12ю3796100 1.3 1005345
12:00+10юз4688100 0.1 1007677
15:00+9юз6883100 0.3 1008712
18:00+8ююз5983100 0.1 1009690
21:00+8ююз4884100 0.1 1010649
21 сентября, вт
вт2100:00+8ю5988100 0.0 1010611
03:00+8ююз61194100 0.9 1009651
06:00+9юз6994100 0.6 1010814
09:00+8зюз5991100 0.8 1011716
12:00+10зюз6877100 0.1 10121002
15:00+9юз4775100 0.1 10131006
18:00+8з4680100 0.1 1013614
21:00+6зюз478599 0.1 1014624
22 сентября, ср
ср2200:00+5з4689100 0.1 1014794
03:00+5зюз3588100 0.1 1014850
06:00+5зюз3587100 0.1 1015837
09:00+5зюз3586100 0.1 1015702
12:00+6зюз3484100 0.1 1016806
15:00+7зюз2377100 0.1 1016836
18:00+7зюз1278100 0.1 1016250
21:00+7ю0084100 0.1 101736
23 сентября, чт
чт2300:00+6юв1284100 0.0 101682
03:00+6юв2284100 0.0 101687
06:00+6вюв2385100 0.0 1015115
09:00+7юв3579100 0.1 1015949
12:00+9ю346860 0.1 1015909
15:00+10ююз3456100 0.3 10131145
18:00+9ююз1160100 0.0 101410
21:00+8зюз1163100 0.0 101310